カタログに戻る

TITAN 3C TRANSTAGE DEB

LostHEO
NORAD 19595·DEBRIS·🇺🇸 United States

打ち上げ Dec 21, 1965 から Cape Canaveral Space Force Station

Loading…

次のパス (今後24時間)

TLE

古いSource: Space-Track

元期: Jul 21, 2026, 01:38 UTC

1 19595U 65108AB  26202.06812474  .00000497  00000-0  37171-3 0  9995
2 19595  26.8887 122.6700 5945884 227.2913  64.3828  4.03390127198409

AllMySatでTITAN 3C TRANSTAGE DEBをリアルタイム追跡

Download on the App Store